Home   Weather   Narva   Past weeks

Flag for Estonia Past Weather in Narva, Estonia — Yesterday and Last 2 Weeks

Now
35 °F

Scattered clouds.


Feels Like: 32 °F
Forecast: 30 / 41 °F
Wind: 3 mph from West

Location: Narva

Current Time: Apr 24, 2017 at 10:34:52 am

Latest Report: Apr 24, 2017 at 9:00 am


Visibility: 13 mi

Pressure: 29.74 "Hg

Humidity: 94%

Dew Point: 34 °F

Location of NarvaLocation

Past Weather in Narva — Graph

°F

Narva Temperature Yesterday

Maximum temperature yesterday: 40 °F (at 4:00 pm)
Minimum temperature yesterday: 31 °F (at 2:00 am)
Average temperature yesterday: 36 °F

High & Low Weather Summary for the Past Weeks

 TemperatureHumidityPressure
High59 °F (Apr 10, 6:00 pm)100% (Apr 13, 5:00 am)30.53 "Hg (Apr 13, 5:00 am)
Low15 °F (Apr 16, 6:00 am)36% (Apr 19, 6:00 pm)29.15 "Hg (Apr 22, 9:00 am)
Average34 °F76%29.76 "Hg
* Reported Apr 9 9:00 am — Apr 24 9:00 am, Narva, Weather by CustomWeather, © 2017

Note: Actual official high and low records may vary slightly from our data, if they occured in-between our weather recording intervals... More about our weather records

Advertising

Narva Weather History for the Previous 24 Hours

Scroll right to see more
 ConditionsComfort  
Time TempWeatherWind HumidityBarometerVisibility
9:00 am
Mon, Apr 24
35 °FScattered clouds.3 mph94%29.74 "Hg12 mi
8:00 am34 °FScattered clouds.3 mph96%29.73 "Hg12 mi
7:00 am32 °FPartly sunny.3 mph98%29.72 "Hg12 mi
6:00 am32 °FOvercast.3 mph100%29.72 "Hg12 mi
5:00 am33 °FLight snow. Overcast.3 mph100%29.71 "Hg6 mi
4:00 am33 °FLight snow. Low clouds.5 mph100%29.71 "Hg2 mi
3:00 am33 °FLight snow. Overcast.3 mph100%29.71 "Hg4 mi
2:00 am33 °FLight snow. Low clouds.3 mph100%29.71 "Hg4 mi
1:00 am33 °FLight snow. Low clouds.3 mph100%29.71 "Hg2 mi
12:00 am33 °FLight snow. Overcast.5 mph100%29.71 "Hg2 mi
11:00 pm
Sun, Apr 23
33 °FFreezing rain. Low clouds.5 mph99%29.70 "Hg7 mi
10:00 pm34 °FRain showers. Low clouds.5 mph96%29.69 "Hg12 mi
9:00 pm36 °FOvercast.5 mph89%29.68 "Hg12 mi
8:00 pm36 °FLow clouds.6 mph91%29.67 "Hg12 mi
7:00 pm36 °FLow clouds.6 mph91%29.65 "Hg12 mi
6:00 pm36 °FLow clouds.7 mph92%29.64 "Hg12 mi
5:00 pm37 °FScattered clouds.8 mph86%29.62 "Hg12 mi
4:00 pm40 °FSunny.7 mph77%29.60 "Hg12 mi
3:00 pm39 °FScattered clouds.7 mph80%29.58 "Hg12 mi
2:00 pm39 °FLow clouds.7 mph87%29.57 "Hg12 mi
1:00 pm37 °FLow clouds.6 mph86%29.56 "Hg12 mi
12:00 pm37 °FLow clouds.6 mph89%29.54 "Hg12 mi
11:00 am36 °FLow clouds.5 mph91%29.50 "Hg12 mi
10:00 am37 °FLow clouds.5 mph91%29.47 "Hg12 mi
Weather by CustomWeather, © 2017

See weather overviewHow to use our weather pages